This demonstration page uses our WeatherBlox Daily Observations layout. Learn more.

Left ArrowRight Arrow

Hourly Observations for October 3, 2021

Temp ( °F °C ) Dew Point ( °F °C ) Humidity (%) Winds ( mph kmh ) Pressure ( in mb ) Visibility ( mi km ) Precip ( " mm )
12:53 am 00:53 Clear 62 16.7 35 1.7 37 37 N N/A 29.98 1015 10 16 N/A
1:53 am 01:53 Clear 59 15 36 2.2 42 42 N N/A 29.98 1015 10 16 N/A
2:53 am 02:53 Clear 58 14.4 34 1.1 41 41 N 3 6 29.99 1016 10 16 N/A
3:53 am 03:53 Clear 58 14.4 35 1.7 42 42 N N/A 29.98 1015 10 16 N/A
4:53 am 04:53 Clear 58 14.4 37 2.8 46 46 N N/A 29.97 1015 10 16 N/A
5:53 am 05:53 Clear 56 13.3 38 3.3 51 51 N N/A 29.97 1015 10 16 N/A
6:53 am 06:53 Clear 54 12.2 36 2.2 51 51 N N/A 29.98 1015 10 16 N/A
7:53 am 07:53 Sunny 56 13.3 38 3.3 51 51 N N/A 29.98 1015 10 16 N/A
8:53 am 08:53 Sunny 66 18.9 40 4.4 39 39 N N/A 29.98 1015 10 16 N/A
9:53 am 09:53 Sunny 73 22.8 39 3.9 29 29 N 3 6 29.98 1015 10 16 N/A
10:53 am 10:53 Sunny 81 27.2 37 2.8 21 21 N N/A 29.97 1015 10 16 N/A
11:53 am 11:53 Sunny 85 29.4 38 3.3 19 19 N N/A 29.95 1014 10 16 N/A
12:53 pm 12:53 Sunny 87 30.6 38 3.3 18 18 N N/A 29.93 1013 10 16 N/A
1:53 pm 13:53 Sunny 90 32.2 37 2.8 15 15 SSE 6 9 29.90 1013 10 16 N/A
2:53 pm 14:53 Sunny 92 33.3 38 3.3 15 15 S 9 15 29.88 1012 10 16 N/A
5:30 pm 17:30 Sunny 90 32 37 3 16 16 SSE 12 19 29.83 1010 10 16 N/A
5:35 pm 17:35 Sunny 90 32 37 3 16 16 SSE 13 20 29.83 1010 10 16 N/A
5:55 pm 17:55 Sunny 88 31 37 3 17 17 SSE 12 19 29.83 1010 10 16 N/A
6:53 pm 18:53 Clear 81 27.2 39 3.9 22 22 SSE 10 17 29.85 1011 10 16 N/A
7:53 pm 19:53 Clear 75 23.9 39 3.9 27 27 SSE 7 11 29.86 1011 10 16 N/A
8:53 pm 20:53 Clear 73 22.8 38 3.3 28 28 N N/A 29.87 1012 10 16 N/A
9:53 pm 21:53 Clear 70 21.1 37 2.8 30 30 NNE 6 9 29.89 1012 10 16 N/A
10:53 pm 22:53 Clear 67 19.4 37 2.8 33 33 N 3 6 29.90 1012 10 16 N/A
11:53 pm 23:53 Clear 64 17.8 38 3.3 38 38 NNW 3 6 29.91 1013 10 16 N/A

Powered by AerisWeather